Location: Newark
(44.2003°N, 3.2583°E)
Time: 18:35:57
(UTC+00:00)

OTV 5 (USA 277) - Pass Details

Date: 30 October 2019
Orbit: 310 x 324 km, 54.5° (Epoch: 17 October)

Event Time Altitude Azimuth Distance (km) Brightness Sun altitude
Rises 17:30:26 0° 217° (SW) 2,045 ? -9.6°
Reaches altitude 10° 17:32:26 10° 209° (SSW) 1,222 ? -9.9°
Maximum altitude 17:35:01 40° 137° (SE) 488 ? -10.4°
Enters shadow 17:36:39 19° 74° (ENE) 868 ? -10.7°
